Meteo Giornale » Osservazioni meteo Corea del Sud » Sangju Tmq-53P

ore: 04:10 - Osservazioni Meteo Sangju Tmq-53P
Lat. 36° 24' N Lon. 128° 9' E Alt. 92 metri s.l.m.

coperto

24 °C

Coperto

Temp. 24 Ore

23 °C

32 °C

Nord

1.8 Km/h

Dew point 23 °C

Umidità 94 %

Visibilità  10 Km

Il sole sorge alle ore 05:59

Il sole tramonta alle ore 18:55

Data e Ora Cielo e Fenomeni T °C DP °C Um. % Pres. hPa Vis. km Vento km/h
Oggi h: 04:10 coperto Coperto 24 23 94 1012 10 N 1.8
Oggi h: 04:00 coperto Coperto 24 23 94 1012 10 N 0
Oggi h: 03:50 coperto Coperto 24 23 94 1012 10 N 1.8
Oggi h: 03:40 coperto Coperto 24 24 100 1012 10 N 1.8
Oggi h: 03:30 coperto Coperto 24 24 100 1012 10 N 0
Oggi h: 03:20 coperto Coperto 24 24 100 1012 10 N 1.8
Oggi h: 03:10 coperto Coperto 24 24 100 1012 10 N 1.8
Oggi h: 03:00 coperto Coperto 24 24 100 1012 10 N 1.8
Oggi h: 02:50 coperto Coperto 24 23 94 1012 10 N 1.8
Oggi h: 02:40 coperto Coperto 24 23 94 1012 10 N 1.8
Oggi h: 02:30 coperto Coperto 24 23 94 1012 10 N 0
Oggi h: 02:20 coperto Coperto 24 23 94 1012 10 N 1.8
Oggi h: 02:10 coperto Coperto 24 23 94 1012 10 N 1.8
Oggi h: 02:00 coperto Coperto 24 23 94 1012 10 N 1.8
Oggi h: 01:50 coperto Coperto 24 23 94 1012 10 N 0
Oggi h: 01:40 coperto Coperto 24 23 94 1012 10 N 1.8
Oggi h: 01:30 coperto Coperto 24 24 100 1012 10 N 1.8
Oggi h: 01:20 coperto Coperto 24 23 94 1012 10 N 0
Oggi h: 01:10 coperto Coperto 24 23 94 1012 10 N 1.8
Oggi h: 01:00 coperto Coperto 24 23 94 1012 10 N 1.8
Oggi h: 00:50 molto_nuvoloso Molto Nuvoloso 24 23 94 1012 10 N 1.8
Oggi h: 00:40 molto_nuvoloso Molto Nuvoloso 24 23 94 1012 10 N 1.8
Oggi h: 00:30 molto_nuvoloso Molto Nuvoloso 24 23 94 1012 10 N 1.8
Oggi h: 00:20 molto_nuvoloso Molto Nuvoloso 24 23 94 1012 10 N 1.8
Oggi h: 00:10 molto_nuvoloso Molto Nuvoloso 24 23 94 1012 10 N 1.8
Oggi h: 00:00 molto_nuvoloso Molto Nuvoloso 24 23 94 1012 10 N 1.8
Ieri h: 23:50 molto_nuvoloso Molto Nuvoloso 24 23 94 1012 10 N 1.8
Ieri h: 23:40 coperto Coperto 24 23 94 1012 10 N 1.8
Ieri h: 23:30 coperto Coperto 24 23 94 1012 10 N 0
Ieri h: 23:20 coperto Coperto 24 24 100 1012 10 N 0
Ieri h: 23:10 nuvoloso Nuvoloso 24 23 94 1012 10 N 1.8
Ieri h: 23:00 molto_nuvoloso Molto Nuvoloso 24 23 94 1012 10 N 0
Ieri h: 22:50 molto_nuvoloso Molto Nuvoloso 24 23 94 1012 10 N 1.8
Ieri h: 22:40 molto_nuvoloso Molto Nuvoloso 24 23 94 1012 10 N 1.8
Ieri h: 22:30 molto_nuvoloso Molto Nuvoloso 24 23 94 1012 10 N 1.8
Ieri h: 22:20 molto_nuvoloso Molto Nuvoloso 24 24 100 1012 10 N 0
Ieri h: 22:10 molto_nuvoloso Molto Nuvoloso 24 24 100 1012 10 N 1.8
Ieri h: 22:00 molto_nuvoloso Molto Nuvoloso 24 24 100 1012 10 N 1.8
Ieri h: 21:50 molto_nuvoloso Molto Nuvoloso 24 24 100 1012 10 N 0
Ieri h: 21:40 molto_nuvoloso Molto Nuvoloso 24 24 100 1012 10 N 1.8
Ieri h: 21:30 nuvoloso Nuvoloso 24 24 100 1012 10 N 1.8
Ieri h: 21:20 molto_nuvoloso Molto Nuvoloso 24 24 100 1012 10 N 1.8
Ieri h: 21:10 molto_nuvoloso Molto Nuvoloso 25 24 94 1012 10 N 3.7
Ieri h: 21:00 nuvoloso Nuvoloso 25 24 94 1012 10 N 1.8
Ieri h: 20:50 poco_nuvoloso Poco Nuvoloso 25 23 88 1012 10 N 1.8
Ieri h: 20:40 nuvoloso Nuvoloso 25 24 94 1012 10 N 3.7
Ieri h: 20:30 nuvoloso Nuvoloso 25 24 94 1012 10 N 1.8
Ieri h: 20:20 nuvoloso Nuvoloso 25 24 94 1012 10 N 1.8
Ieri h: 20:10 molto_nuvoloso Molto Nuvoloso 25 24 94 1011 10 N 1.8
Ieri h: 20:00 molto_nuvoloso Molto Nuvoloso 25 24 94 1011 10 N 1.8
Ieri h: 19:50 molto_nuvoloso Molto Nuvoloso 25 24 94 1011 10 N 1.8
Ieri h: 19:40 nuvoloso Nuvoloso 25 24 94 1011 10 N 1.8
Ieri h: 19:30 molto_nuvoloso Molto Nuvoloso 25 24 94 1011 10 N 1.8
Ieri h: 19:20 molto_nuvoloso Molto Nuvoloso 25 24 94 1011 10 N 0
Ieri h: 19:10 molto_nuvoloso Molto Nuvoloso 25 24 94 1011 10 N 1.8
Ieri h: 19:00 molto_nuvoloso Molto Nuvoloso 25 24 94 1011 10 N 5.5
Ieri h: 18:50 molto_nuvoloso Molto Nuvoloso 25 24 94 1011 10 N 3.7
Ieri h: 18:40 molto_nuvoloso Molto Nuvoloso 26 24 88 1011 10 N 1.8
Ieri h: 18:30 molto_nuvoloso Molto Nuvoloso 26 24 88 1010 10 N 3.7
Ieri h: 18:20 molto_nuvoloso Molto Nuvoloso 26 24 88 1010 10 N 1.8
Ieri h: 18:10 molto_nuvoloso Molto Nuvoloso 26 25 94 1010 10 N 3.7
Ieri h: 18:00 molto_nuvoloso Molto Nuvoloso 26 25 94 1010 10 N 1.8
Ieri h: 17:50 molto_nuvoloso Molto Nuvoloso 26 25 94 1010 10 N 3.7
Ieri h: 17:40 molto_nuvoloso Molto Nuvoloso 27 24 83 1010 10 O 11.1
Ieri h: 17:30 molto_nuvoloso Molto Nuvoloso 29 24 74 1009 10 N 1.8
Ieri h: 17:20 nuvoloso Nuvoloso 29 25 79 1009 10 N 1.8
Ieri h: 17:10 nuvoloso Nuvoloso 29 25 79 1009 10 N 1.8
Ieri h: 17:00 nuvoloso Nuvoloso 29 25 79 1009 10 N 1.8
Ieri h: 16:50 molto_nuvoloso Molto Nuvoloso 30 24 70 1009 10 N 3.7
Ieri h: 16:40 molto_nuvoloso Molto Nuvoloso 30 24 70 1009 10 N 0
Ieri h: 16:30 molto_nuvoloso Molto Nuvoloso 30 23 66 1009 10 N 5.5
Ieri h: 16:20 molto_nuvoloso Molto Nuvoloso 30 23 66 1010 10 N 3.7
Ieri h: 16:10 molto_nuvoloso Molto Nuvoloso 30 24 70 1010 10 N 1.8
Ieri h: 16:00 molto_nuvoloso Molto Nuvoloso 31 24 66 1009 10 N 1.8
Ieri h: 15:50 molto_nuvoloso Molto Nuvoloso 30 24 70 1009 10 N 1.8
Ieri h: 15:40 poco_nuvoloso Poco Nuvoloso 30 23 66 1010 10 N 3.7
Ieri h: 15:30 poco_nuvoloso Poco Nuvoloso 31 23 62 1010 10 N 3.7
Ieri h: 15:20 poco_nuvoloso Poco Nuvoloso 31 23 62 1010 10 N 5.5
Ieri h: 15:10 nuvoloso Nuvoloso 31 23 62 1010 10 N 1.8
Ieri h: 15:00 poco_nuvoloso Poco Nuvoloso 31 23 62 1010 10 N 5.5
Ieri h: 14:50 sereno Sereno 32 25 66 1010 10 N 1.8
Ieri h: 14:40 sereno Sereno 31 23 62 1010 10 N 3.7
Ieri h: 14:30 sereno Sereno 31 23 62 1010 10 N 3.7
Ieri h: 14:20 poco_nuvoloso Poco Nuvoloso 31 23 62 1010 10 N 3.7
Ieri h: 14:10 poco_nuvoloso Poco Nuvoloso 31 23 62 1010 10 N 3.7
Ieri h: 14:00 poco_nuvoloso Poco Nuvoloso 31 24 66 1010 10 N 3.7
Ieri h: 13:50 poco_nuvoloso Poco Nuvoloso 31 23 62 1010 10 N 3.7
Ieri h: 13:40 poco_nuvoloso Poco Nuvoloso 30 23 66 1011 10 N 1.8
Ieri h: 13:30 nuvoloso Nuvoloso 31 24 66 1011 10 N 1.8
Ieri h: 13:20 nuvoloso Nuvoloso 30 24 70 1011 10 N 3.7
Ieri h: 13:10 nuvoloso Nuvoloso 29 23 70 1011 10 N 3.7
Ieri h: 13:00 poco_nuvoloso Poco Nuvoloso 29 23 70 1011 10 N 3.7
Ieri h: 12:50 sereno Sereno 30 24 70 1011 10 N 1.8
Ieri h: 12:40 sereno Sereno 29 22 66 1011 10 N 5.5
Ieri h: 12:30 poco_nuvoloso Poco Nuvoloso 30 23 66 1011 10 N 5.5
Ieri h: 12:20 poco_nuvoloso Poco Nuvoloso 29 22 66 1011 10 N 3.7
Ieri h: 12:10 poco_nuvoloso Poco Nuvoloso 29 23 70 1011 10 N 3.7
Ieri h: 12:00 poco_nuvoloso Poco Nuvoloso 29 22 66 1011 10 E 7.4
Ieri h: 11:50 nuvoloso Nuvoloso 29 24 74 1011 10 N 5.5
Ieri h: 11:40 molto_nuvoloso Molto Nuvoloso 29 22 66 1011 10 N 3.7
Ieri h: 11:30 molto_nuvoloso Molto Nuvoloso 29 24 74 1012 10 E/SE 7.4
Ieri h: 11:20 molto_nuvoloso Molto Nuvoloso 29 24 74 1012 10 N 1.8
Ieri h: 11:10 molto_nuvoloso Molto Nuvoloso 29 24 74 1012 10 N 1.8
Ieri h: 11:00 nuvoloso Nuvoloso 29 23 70 1012 10 N 3.7
Ieri h: 10:50 molto_nuvoloso Molto Nuvoloso 28 24 78 1012 10 N 3.7
Ieri h: 10:40 molto_nuvoloso Molto Nuvoloso 29 24 74 1012 10 N 3.7
Ieri h: 10:30 molto_nuvoloso Molto Nuvoloso 28 24 78 1012 10 N 1.8
Ieri h: 10:20 molto_nuvoloso Molto Nuvoloso 28 23 74 1012 10 N 1.8
Ieri h: 10:10 molto_nuvoloso Molto Nuvoloso 28 25 83 1012 10 N 1.8
Ieri h: 10:00 molto_nuvoloso Molto Nuvoloso 27 24 83 1012 10 N 3.7
Ieri h: 09:50 nuvoloso Nuvoloso 27 23 78 1012 10 N 5.5
Ieri h: 09:40 poco_nuvoloso Poco Nuvoloso 27 23 78 1012 10 N 1.8
Ieri h: 09:30 nuvoloso Nuvoloso 28 24 78 1012 10 N 1.8
Ieri h: 09:20 nuvoloso Nuvoloso 27 24 83 1012 10 N 3.7
Ieri h: 09:10 molto_nuvoloso Molto Nuvoloso 26 24 88 1012 10 N 1.8
Ieri h: 08:50 molto_nuvoloso Molto Nuvoloso 26 24 88 1012 10 N 1.8
Ieri h: 08:40 molto_nuvoloso Molto Nuvoloso 26 23 83 1012 10 N 1.8
Ieri h: 08:30 molto_nuvoloso Molto Nuvoloso 25 23 88 1012 10 N 3.7
Ieri h: 08:20 coperto Coperto 26 24 88 1012 10 N 0
Ieri h: 08:10 coperto Coperto 25 23 88 1012 10 N 1.8
Ieri h: 08:00 coperto Coperto 25 23 88 1012 10 N 1.8
Ieri h: 07:50 coperto Coperto 24 24 100 1012 10 N 1.8
Ieri h: 07:40 molto_nuvoloso Molto Nuvoloso 24 23 94 1012 10 N 1.8
Ieri h: 07:30 molto_nuvoloso Molto Nuvoloso 23 23 100 1012 10 N 1.8
Ieri h: 07:20 molto_nuvoloso Molto Nuvoloso 23 23 100 1012 10 N 3.7
Ieri h: 07:10 coperto Coperto 23 23 100 1012 10 N 1.8
Ieri h: 07:00 coperto Coperto 23 23 100 1012 10 N 1.8
Ieri h: 06:50 coperto Coperto 23 23 100 1012 10 N 0
Ieri h: 06:40 coperto Coperto 23 23 100 1012 10 N 0
Ieri h: 06:30 coperto Coperto 23 23 100 1011 10 N 1.8
Ieri h: 06:20 coperto Coperto 23 23 100 1011 10 N 1.8
Ieri h: 06:10 coperto Coperto 23 22 94 1011 10 N 0
Ieri h: 06:00 coperto Coperto 23 22 94 1011 10 N 1.8
Ieri h: 05:50 coperto Coperto 23 23 100 1011 10 N 1.8
Ieri h: 05:40 coperto Coperto 23 23 100 1011 10 N 1.8
Ieri h: 05:30 coperto Coperto 23 23 100 1011 10 N 1.8
Ieri h: 05:20 coperto Coperto 23 23 100 1011 10 N 1.8
Ieri h: 05:10 coperto Coperto 23 22 94 1011 10 N 1.8
Ieri h: 05:00 coperto Coperto 23 22 94 1011 10 N 1.8
Ieri h: 04:50 coperto Coperto 23 22 94 1011 10 N 1.8
Ieri h: 04:40 coperto Coperto 23 22 94 1011 10 N 1.8
Previsioni Meteo per località vicine a Sangju Tmq-53P